Starlink 4395

operational
NORAD ID: 53199 Int'l Des: 2022-084 Owner: SPXS Country: US Constellation: starlink
LEOCIRCULARRETROGRADESSO

关于 Starlink 4395

正在加载描述...

实时位置

正在加载3D地球...

即将过境

高度历史

Altitude vs Time

uPlot chart will show altitude changes over time

两行轨道根数

1 53199U 22084L 26071.11872144 .00003075 00000-0 21720-3 0 9997
2 53199 97.6040 133.6022 0000899 139.0351 221.0944 15.05660045199744
Epoch: Mar 12, 2026 • Age: 14 hours

当前状态

高度 575.5 km
速度 7.57 km/s
星下点 -68.56°S, 78.81°W
发射日期 Jul 22, 2022
运行时间 3.6 years
类型 internet

技术详情

分类 Payload
质量 297.00 kg
干质量 275.00 kg
总质量 297.00 kg
长度 0.20 m
直径 2.80 m
跨度 9.00 m
形状 Box + pan
制造商 SPXS
平台类型 Starlink
阶段状态 In Orbit
所有者/国家 SPXS/US

大型星座

Loading constellations...